Tracking 18852 objects as of 24-Nov-2017
HD Live streaming from Space Station
objects crossing your sky now

FENGYUN 1C DEB

Track FENGYUN 1C DEB now!
10-day predictions


NORAD ID: 30272
Int'l Code: 1999-025YH
Perigee: 843.3 km
Apogee: 928.1 km
Inclination: 99.1 °
Period: 102.5 minutes
Semi major axis: 7256 km
RCS: 0.033 m2 (small)
Launch date: May 10, 1999
Source: People's Republic of China (PRC)
Launch site: Taiyaun Space Center, China (TSC)

Note: This is SATELLITE DEBRIS
aabbcc
Your satellite tracking list
Your tracking list is empty




NASA's NSSDC Master Catalog

Two Line Element Set (TLE):
1 30272U 99025YH  17327.54455562  .00000912  00000-0  59183-3 0  9996
2 30272  99.1054   4.9918 0058448  47.7634 312.8470 14.04409611554992
Source of the keplerian elements: AFSPC